Location: Unspecified
(0.0000°N, 0.0000°E)
Time: 18:24:38
(UTC+00:00)

Vanguard 3 - Pass Details

Date: 04 February 2023
Orbit: 509 x 3249 km, 33.3° (Epoch: 20 March)

Event Time Altitude Azimuth Distance (km) Brightness Sun altitude
Rises 15:44:08 0° 261° (W) 2,758 10.9 35.7°
Reaches altitude 10° 15:46:21 10° 275° (W) 2,010 10.3 35.2°
Maximum altitude 15:50:13 27° 334° (NNW) 1,488 8.8 34.3°
Drops below altitude 10° 15:55:47 10° 30° (NNE) 2,971 9.7 33.0°
Sets 15:59:52 0° 41° (NE) 4,422 10.5 32.0°
